Overview Statistics Trail Chart Weather Telemetry Raw packets
 

This is the latest recevied weather packets stored in our database for station/object K8RRT. If no packets are shown the sender has not sent any weather packets the latest 10 day(s).

<< 92 93 94 95 96 97 98 >>
Time Temp. Humidity Pressure Rain* Wind** Luminosity Snow
1787928513 24.44° C 89% 1015.4 hPa 0 mm - 622 W/m² -
1787928212 24.44° C 90% 1014.9 hPa 0 mm - 644 W/m² -
1787927911 23.89° C 92% 1015 hPa 0 mm - 651 W/m² -
1787927606 23.33° C 93% 1014.9 hPa 0 mm - 644 W/m² -
1787927301 22.78° C 96% 1014.9 hPa 0 mm - 379 W/m² -
1787926997 22.22° C 99% 1014.9 hPa 0 mm - 529 W/m² -
1787926697 21.67° C 99% 1015 hPa 0 mm - 545 W/m² -
1787926395 21.67° C 99% 1015.1 hPa 0 mm - 448 W/m² -
1787926090 21.67° C 99% 1014.9 hPa 0 mm - 445 W/m² -
1787925789 21.67° C 99% 1014.9 hPa 0 mm - 522 W/m² -
1787925483 21.67° C 99% 1015 hPa 0 mm - 327 W/m² -
1787925178 21.67° C 99% 1014.7 hPa 0 mm - 524 W/m² -
1787924876 20.56° C 99% 1014.8 hPa 0 mm - 352 W/m² -
1787924572 21.11° C 99% 1014.9 hPa 0 mm - 366 W/m² -
1787924267 20.56° C 99% 1014.8 hPa 0 mm - 287 W/m² -
1787923961 20.56° C 99% 1014.7 hPa 0 mm - 259 W/m² -
1787923656 21.11° C 99% 1014.7 hPa 0 mm - 248 W/m² -
1787923351 20° C 99% 1014.8 hPa 0 mm - 216 W/m² -
1787923046 20° C 99% 1014.8 hPa 0 mm - 170 W/m² -
1787922741 20° C 99% 1014.6 hPa 0 mm - 144 W/m² -
1787922440 20° C 99% 1014.8 hPa 0 mm - 149 W/m² -
1787922139 19.44° C 99% 1014.4 hPa 0 mm - 177 W/m² -
1787921837 19.44° C 99% 1014.4 hPa 0 mm - 140 W/m² -
1787921533 19.44° C 99% 1014.4 hPa 0 mm - 126 W/m² -
1787921232 19.44° C 99% 1014.3 hPa 0 mm - 130 W/m² -

* Rain latest hour (hover to see other rain measurements)
** Current wind speed in m/s (hover to see current wind gust speed)